,,Stat6,,Stat2,,Stat8,,Stat9,,Stat10,,Wind1,,Wind1,
time,status,PA1M_AVG,status,PR1M_SUM,status,RH1M_AVG,status,SR1M_AVG,status,TA1M_AVG,status,W1dAve1m,status,W1sAve1m,
2003-12-15, 00:00:00,VALID,918.47,VALID,0,VALID,87.7166,VALID,0.0679233,VALID,20.7617,VALID,147,VALID,0.594993,
2003-12-15, 00:01:00,VALID,918.458,VALID,0,VALID,88.0523,VALID,0.0509425,VALID,20.7456,VALID,119,VALID,0.527249,
2003-12-15, 00:02:00,VALID,918.444,VALID,0,VALID,88.2811,VALID,0.0509425,VALID,20.7165,VALID,126,VALID,0.458097,
2003-12-15, 00:03:00,VALID,918.443,VALID,0,VALID,88.3536,VALID,0.0679233,VALID,20.6877,VALID,147,VALID,0.539789,
2003-12-15, 00:04:00,VALID,918.424,VALID,0,VALID,88.3053,VALID,0.0509425,VALID,20.6613,VALID,155,VALID,1.05741,
2003-12-15, 00:05:00,VALID,918.427,VALID,0,VALID,88.4388,VALID,0.0339617,VALID,20.6583,VALID,173,VALID,0.813033,
2003-12-15, 00:06:00,VALID,918.425,VALID,0,VALID,88.5075,VALID,0.0849042,VALID,20.6486,VALID,151,VALID,0.948583,
2003-12-15, 00:07:00,VALID,918.427,VALID,0,VALID,88.7377,VALID,-0.0849042,VALID,20.6244,VALID,140,VALID,0.831771,
2003-12-15, 00:08:00,VALID,918.421,VALID,0,VALID,88.9665,VALID,-0.0679233,VALID,20.5883,VALID,158,VALID,0.379002,
2003-12-15, 00:09:00,VALID,918.416,VALID,0,VALID,88.8928,VALID,-0.0509425,VALID,20.5689,VALID,157,VALID,0.456364,
2003-12-15, 00:10:00,VALID,918.409,VALID,0,VALID,89.0886,VALID,-0.101885,VALID,20.5597,VALID,162,VALID,0.34702,
2003-12-15, 00:11:00,VALID,918.395,VALID,0,VALID,89.1255,VALID,-0.0339617,VALID,20.5366,VALID,136,VALID,0.611506,
2003-12-15, 00:12:00,VALID,918.387,VALID,0,VALID,89.3913,VALID,-0.0509425,VALID,20.5205,VALID,128,VALID,0.387784,
2003-12-15, 00:13:00,VALID,918.386,VALID,0,VALID,88.8508,VALID,-0.0679233,VALID,20.5046,VALID,130,VALID,1.18342,
2003-12-15, 00:14:00,VALID,918.381,VALID,0,VALID,89.437,VALID,-0.0509425,VALID,20.5016,VALID,68,VALID,0.495536,
2003-12-15, 00:15:00,VALID,918.386,VALID,0,VALID,89.6405,VALID,-0.0339617,VALID,20.4467,VALID,75,VALID,0.488377,
2003-12-15, 00:16:00,VALID,918.379,VALID,0,VALID,89.713,VALID,-0.0339617,VALID,20.3945,VALID,117,VALID,0.448765,
2003-12-15, 00:17:00,VALID,918.373,VALID,0,VALID,89.7257,VALID,-0.0339617,VALID,20.3756,VALID,124,VALID,0.611683,
2003-12-15, 00:18:00,VALID,918.369,VALID,0,VALID,89.7638,VALID,-0.0509425,VALID,20.3724,VALID,144,VALID,0.830669,
2003-12-15, 00:19:00,VALID,918.362,VALID,0,VALID,90.0118,VALID,-0.0679233,VALID,20.3624,VALID,150,VALID,0.208757,
2003-12-15, 00:20:00,VALID,918.355,VALID,0,VALID,90.364,VALID,-0.0509425,VALID,20.3495,VALID,137,VALID,0.677604,
2003-12-15, 00:21:00,VALID,918.35,VALID,0,VALID,90.4124,VALID,-0.0509425,VALID,20.3304,VALID,142,VALID,1.31936,
2003-12-15, 00:22:00,VALID,918.345,VALID,0,VALID,90.4696,VALID,0,VALID,20.3197,VALID,161,VALID,0.838778,
2003-12-15, 00:23:00,VALID,918.33,VALID,0,VALID,90.467,VALID,0,VALID,20.3199,VALID,163,VALID,0.910974,
2003-12-15, 00:24:00,VALID,918.333,VALID,0,VALID,90.6069,VALID,0,VALID,20.3229,VALID,149,VALID,0.872456,
2003-12-15, 00:25:00,VALID,918.322,VALID,0,VALID,90.6311,VALID,-0.0169808,VALID,20.3398,VALID,146,VALID,0.966016,
2003-12-15, 00:26:00,VALID,918.331,VALID,0,VALID,90.6819,VALID,0,VALID,20.3291,VALID,125,VALID,1.14844,
2003-12-15, 00:27:00,VALID,918.335,VALID,0,VALID,90.7023,VALID,0,VALID,20.3331,VALID,119,VALID,0.786754,
2003-12-15, 00:28:00,VALID,918.333,VALID,0,VALID,90.8968,VALID,-0.0169808,VALID,20.3065,VALID,126,VALID,1.3033,
2003-12-15, 00:29:00,VALID,918.333,VALID,0,VALID,91.0532,VALID,0,VALID,20.2806,VALID,122,VALID,1.05599,
2003-12-15, 00:30:00,VALID,918.318,VALID,0,VALID,91.1702,VALID,0,VALID,20.2647,VALID,129,VALID,1.33812,
2003-12-15, 00:31:00,VALID,918.295,VALID,0,VALID,91.2147,VALID,-0.0169808,VALID,20.2354,VALID,134,VALID,1.66122,
2003-12-15, 00:32:00,VALID,918.292,VALID,0,VALID,91.2275,VALID,-0.0509425,VALID,20.2426,VALID,144,VALID,1.34624,
2003-12-15, 00:33:00,VALID,918.282,VALID,0,VALID,91.1206,VALID,-0.0169808,VALID,20.2523,VALID,137,VALID,1.44295,
2003-12-15, 00:34:00,VALID,918.277,VALID,0,VALID,90.9757,VALID,-0.0169808,VALID,20.2615,VALID,139,VALID,1.58296,
2003-12-15, 00:35:00,VALID,918.271,VALID,0,VALID,90.9439,VALID,0,VALID,20.2779,VALID,130,VALID,1.39688,
2003-12-15, 00:36:00,VALID,918.265,VALID,0,VALID,91.0113,VALID,-0.0169808,VALID,20.2784,VALID,140,VALID,1.44459,
2003-12-15, 00:37:00,VALID,918.261,VALID,0,VALID,91.1423,VALID,-0.101885,VALID,20.2434,VALID,134,VALID,1.03416,
2003-12-15, 00:38:00,VALID,918.257,VALID,0,VALID,91.2592,VALID,-0.101885,VALID,20.231,VALID,119,VALID,1.12843,
2003-12-15, 00:39:00,VALID,918.259,VALID,0,VALID,91.4055,VALID,-0.101885,VALID,20.1957,VALID,108,VALID,1.29738,
2003-12-15, 00:40:00,VALID,918.237,VALID,0,VALID,91.6382,VALID,-0.101885,VALID,20.1572,VALID,88,VALID,1.05526,
2003-12-15, 00:41:00,VALID,918.231,VALID,0,VALID,91.8989,VALID,-0.101885,VALID,20.0985,VALID,69,VALID,0.611374,
2003-12-15, 00:42:00,VALID,918.217,VALID,0,VALID,92.1481,VALID,-0.118866,VALID,20.0498,VALID,65,VALID,0.913881,
2003-12-15, 00:43:00,VALID,918.21,VALID,0,VALID,92.2015,VALID,-0.101885,VALID,20.021,VALID,85,VALID,1.15767,
2003-12-15, 00:44:00,VALID,918.211,VALID,0,VALID,92.1634,VALID,-0.101885,VALID,20.0116,VALID,102,VALID,1.34956,
2003-12-15, 00:45:00,VALID,918.208,VALID,0,VALID,92.1341,VALID,-0.101885,VALID,20.0315,VALID,103,VALID,1.38058,
2003-12-15, 00:46:00,VALID,918.203,VALID,0,VALID,92.1786,VALID,-0.118866,VALID,20.0277,VALID,99,VALID,1.39702,
2003-12-15, 00:47:00,VALID,918.202,VALID,0,VALID,92.1608,VALID,-0.101885,VALID,20.0439,VALID,72,VALID,0.451308,
2003-12-15, 00:48:00,VALID,918.189,VALID,0,VALID,92.2168,VALID,-0.135847,VALID,20.031,VALID,109,VALID,0.74628,
2003-12-15, 00:49:00,VALID,918.165,VALID,0,VALID,92.2575,VALID,-0.101885,VALID,20.0247,VALID,94,VALID,0.821911,
2003-12-15, 00:50:00,VALID,918.141,VALID,0,VALID,92.3223,VALID,-0.118866,VALID,20.0086,VALID,117,VALID,0.858665,
2003-12-15, 00:51:00,VALID,918.128,VALID,0,VALID,92.4291,VALID,-0.118866,VALID,19.9793,VALID,118,VALID,0.706287,
2003-12-15, 00:52:00,VALID,918.099,VALID,0,VALID,92.494,VALID,-0.0169808,VALID,19.9551,VALID,111,VALID,0.983803,
2003-12-15, 00:53:00,VALID,918.061,VALID,0,VALID,92.4685,VALID,0.0169808,VALID,19.9452,VALID,125,VALID,1.41349,
2003-12-15, 00:54:00,VALID,918.046,VALID,0,VALID,92.4189,VALID,-0.0509425,VALID,19.9457,VALID,106,VALID,1.29074,
2003-12-15, 00:55:00,VALID,918.041,VALID,0,VALID,92.4914,VALID,0,VALID,19.946,VALID,107,VALID,1.11814,
2003-12-15, 00:56:00,VALID,918.031,VALID,0,VALID,92.6542,VALID,0,VALID,19.9231,VALID,116,VALID,0.860176,
2003-12-15, 00:57:00,VALID,918.032,VALID,0,VALID,92.7928,VALID,0,VALID,19.9072,VALID,132,VALID,1.00977,
2003-12-15, 00:58:00,VALID,918.042,VALID,0,VALID,92.7203,VALID,0,VALID,19.8905,VALID,80,VALID,0.663699,
2003-12-15, 00:59:00,VALID,918.047,VALID,0,VALID,92.7686,VALID,-0.0169808,VALID,19.8779,VALID,64,VALID,0.498094,
2003-12-15, 01:00:00,VALID,918.043,VALID,0,VALID,92.9708,VALID,0,VALID,19.8553,VALID,106,VALID,1.04031,
2003-12-15, 01:01:00,VALID,918.04,VALID,0,VALID,93.0115,VALID,0,VALID,19.852,VALID,103,VALID,0.855369,
2003-12-15, 01:02:00,VALID,918.033,VALID,0,VALID,93.1272,VALID,0,VALID,19.8297,VALID,99,VALID,0.862282,
2003-12-15, 01:03:00,VALID,918.041,VALID,0,VALID,93.1082,VALID,0,VALID,19.8232,VALID,129,VALID,0.664463,
2003-12-15, 01:04:00,VALID,918.043,VALID,0,VALID,93.1705,VALID,-0.0339617,VALID,19.8168,VALID,116,VALID,0.658381,
2003-12-15, 01:05:00,VALID,918.038,VALID,0,VALID,93.1743,VALID,-0.0339617,VALID,19.8006,VALID,120,VALID,0.831499,
2003-12-15, 01:06:00,VALID,918.02,VALID,0,VALID,93.1959,VALID,-0.0169808,VALID,19.7877,VALID,117,VALID,0.606597,
2003-12-15, 01:07:00,VALID,918,VALID,0,VALID,93.2798,VALID,-0.0849042,VALID,19.7922,VALID,112,VALID,1.09728,
2003-12-15, 01:08:00,VALID,917.972,VALID,0,VALID,93.1438,VALID,-0.0509425,VALID,19.7924,VALID,99,VALID,0.783967,
2003-12-15, 01:09:00,VALID,917.943,VALID,0,VALID,93.2493,VALID,-0.0339617,VALID,19.7663,VALID,128,VALID,1.00568,
2003-12-15, 01:10:00,VALID,917.894,VALID,0,VALID,93.2811,VALID,-0.0339617,VALID,19.7435,VALID,125,VALID,0.927379,
2003-12-15, 01:11:00,VALID,917.863,VALID,0,VALID,93.3625,VALID,-0.0339617,VALID,19.734,VALID,140,VALID,1.02656,
2003-12-15, 01:12:00,VALID,917.827,VALID,0,VALID,93.2964,VALID,-0.0679233,VALID,19.7276,VALID,146,VALID,1.43441,
2003-12-15, 01:13:00,VALID,917.809,VALID,0,VALID,93.098,VALID,-0.0509425,VALID,19.7499,VALID,150,VALID,0.987233,
2003-12-15, 01:14:00,VALID,917.797,VALID,0,VALID,93.0001,VALID,-0.0509425,VALID,19.7691,VALID,156,VALID,0.702276,
2003-12-15, 01:15:00,VALID,917.781,VALID,0,VALID,92.8805,VALID,-0.0679233,VALID,19.7889,VALID,126,VALID,1.09393,
2003-12-15, 01:16:00,VALID,917.779,VALID,0,VALID,92.6771,VALID,-0.0509425,VALID,19.7852,VALID,115,VALID,1.11223,
2003-12-15, 01:17:00,VALID,917.776,VALID,0,VALID,92.6669,VALID,-0.0849042,VALID,19.772,VALID,104,VALID,0.761541,
2003-12-15, 01:18:00,VALID,917.755,VALID,0,VALID,92.7928,VALID,-0.0339617,VALID,19.7596,VALID,127,VALID,0.563072,
2003-12-15, 01:19:00,VALID,917.759,VALID,0,VALID,92.995,VALID,-0.0339617,VALID,19.734,VALID,115,VALID,0.953497,
2003-12-15, 01:20:00,VALID,917.749,VALID,0,VALID,93.098,VALID,-0.0849042,VALID,19.6955,VALID,100,VALID,0.604353,
2003-12-15, 01:21:00,VALID,917.74,VALID,0,VALID,93.3396,VALID,-0.0849042,VALID,19.6433,VALID,110,VALID,0.64027,
2003-12-15, 01:22:00,VALID,917.722,VALID,0,VALID,93.4706,VALID,0.0169808,VALID,19.6066,VALID,110,VALID,0.852653,
2003-12-15, 01:23:00,VALID,917.704,VALID,0,VALID,93.641,VALID,0.0339617,VALID,19.5869,VALID,115,VALID,0.962754,
2003-12-15, 01:24:00,VALID,917.685,VALID,0,VALID,93.571,VALID,0.0339617,VALID,19.5713,VALID,107,VALID,0.869368,
2003-12-15, 01:25:00,VALID,917.667,VALID,0,VALID,93.8317,VALID,0.0339617,VALID,19.545,VALID,95,VALID,0.772195,
2003-12-15, 01:26:00,VALID,917.652,VALID,0,VALID,93.9055,VALID,0.0679233,VALID,19.5325,VALID,101,VALID,1.02431,
2003-12-15, 01:27:00,VALID,917.642,VALID,0,VALID,94.0619,VALID,0.0339617,VALID,19.5067,VALID,119,VALID,0.956499,
2003-12-15, 01:28:00,VALID,917.627,VALID,0,VALID,94.1636,VALID,0.0339617,VALID,19.5002,VALID,93,VALID,0.79154,
2003-12-15, 01:29:00,VALID,917.612,VALID,0,VALID,94.2183,VALID,0.0509425,VALID,19.497,VALID,100,VALID,0.695845,
2003-12-15, 01:30:00,VALID,917.588,VALID,0,VALID,94.2094,VALID,0.0169808,VALID,19.4876,VALID,114,VALID,0.605097,
2003-12-15, 01:31:00,VALID,917.561,VALID,0,VALID,94.4014,VALID,0,VALID,19.4679,VALID,132,VALID,1.03452,
2003-12-15, 01:32:00,VALID,917.551,VALID,0,VALID,94.4141,VALID,0.0509425,VALID,19.4645,VALID,119,VALID,1.00817,
2003-12-15, 01:33:00,VALID,917.525,VALID,0,VALID,94.4522,VALID,0.0849042,VALID,19.4553,VALID,109,VALID,0.841463,
2003-12-15, 01:34:00,VALID,917.509,VALID,0,VALID,94.4891,VALID,0.0339617,VALID,19.4324,VALID,93,VALID,0.679315,
2003-12-15, 01:35:00,VALID,917.514,VALID,0,VALID,94.5819,VALID,0.0169808,VALID,19.413,VALID,97,VALID,0.773624,
2003-12-15, 01:36:00,VALID,917.502,VALID,0,VALID,94.7727,VALID,0.0849042,VALID,19.4033,VALID,115,VALID,1.53852,
2003-12-15, 01:37:00,VALID,917.504,VALID,0,VALID,94.7981,VALID,-0.0169808,VALID,19.4073,VALID,118,VALID,1.27202,
2003-12-15, 01:38:00,VALID,917.51,VALID,0,VALID,94.7307,VALID,-0.0339617,VALID,19.4048,VALID,131,VALID,0.776215,
2003-12-15, 01:39:00,VALID,917.523,VALID,0,VALID,94.8185,VALID,-0.0339617,VALID,19.4083,VALID,125,VALID,0.807776,
2003-12-15, 01:40:00,VALID,917.531,VALID,0,VALID,94.7765,VALID,-0.0509425,VALID,19.4018,VALID,123,VALID,0.835938,
2003-12-15, 01:41:00,VALID,917.549,VALID,0,VALID,94.6277,VALID,-0.0339617,VALID,19.3852,VALID,120,VALID,0.926172,
2003-12-15, 01:42:00,VALID,917.538,VALID,0,VALID,94.76,VALID,0,VALID,19.3529,VALID,100,VALID,0.956364,
2003-12-15, 01:43:00,VALID,917.546,VALID,0,VALID,94.8452,VALID,-0.0509425,VALID,19.3375,VALID,121,VALID,1.12143,
2003-12-15, 01:44:00,VALID,917.529,VALID,0,VALID,94.7256,VALID,-0.0169808,VALID,19.3275,VALID,117,VALID,0.903201,
2003-12-15, 01:45:00,VALID,917.513,VALID,0,VALID,94.9469,VALID,-0.0509425,VALID,19.3245,VALID,140,VALID,1.18296,
2003-12-15, 01:46:00,VALID,917.483,VALID,0,VALID,94.8909,VALID,-0.0509425,VALID,19.3303,VALID,141,VALID,0.823103,
2003-12-15, 01:47:00,VALID,917.461,VALID,0,VALID,94.8859,VALID,-0.0509425,VALID,19.3564,VALID,156,VALID,0.75279,
2003-12-15, 01:48:00,VALID,917.444,VALID,0,VALID,94.7053,VALID,-0.0339617,VALID,19.3757,VALID,140,VALID,0.737909,
2003-12-15, 01:49:00,VALID,917.44,VALID,0,VALID,94.6443,VALID,-0.0339617,VALID,19.3859,VALID,129,VALID,0.723479,
2003-12-15, 01:50:00,VALID,917.444,VALID,0,VALID,94.6977,VALID,-0.0679233,VALID,19.376,VALID,117,VALID,0.809375,
2003-12-15, 01:51:00,VALID,917.444,VALID,0,VALID,94.6519,VALID,-0.0509425,VALID,19.379,VALID,108,VALID,0.656749,
2003-12-15, 01:52:00,VALID,917.445,VALID,0,VALID,94.5972,VALID,-0.0679233,VALID,19.3665,VALID,108,VALID,0.784091,
2003-12-15, 01:53:00,VALID,917.457,VALID,0,VALID,94.7651,VALID,-0.0849042,VALID,19.3598,VALID,106,VALID,0.65625,
2003-12-15, 01:54:00,VALID,917.457,VALID,0,VALID,94.7727,VALID,-0.0679233,VALID,19.3375,VALID,83,VALID,0.686955,
2003-12-15, 01:55:00,VALID,917.466,VALID,0,VALID,94.8922,VALID,-0.0509425,VALID,19.3181,VALID,62,VALID,0.651563,
2003-12-15, 01:56:00,VALID,917.464,VALID,0,VALID,95.0601,VALID,-0.0849042,VALID,19.3017,VALID,103,VALID,0.585574,
2003-12-15, 01:57:00,VALID,917.445,VALID,0,VALID,95.1593,VALID,-0.0339617,VALID,19.3047,VALID,100,VALID,0.454942,
2003-12-15, 01:58:00,VALID,917.44,VALID,0,VALID,95.0346,VALID,-0.0679233,VALID,19.3047,VALID,100,VALID,0.254261,
2003-12-15, 01:59:00,VALID,917.423,VALID,0,VALID,94.9176,VALID,-0.0509425,VALID,19.3017,VALID,100,VALID,0.336868,
2003-12-15, 02:00:00,VALID,917.416,VALID,0,VALID,94.8108,VALID,-0.0679233,VALID,19.2855,VALID,101,VALID,0.223166,
2003-12-15, 02:01:00,VALID,917.408,VALID,0,VALID,94.8375,VALID,-0.0849042,VALID,19.2632,VALID,101,VALID,0.0217391,
2003-12-15, 02:02:00,VALID,917.394,VALID,0,VALID,94.6582,VALID,-0.0509425,VALID,19.2242,VALID,101,VALID,0.213796,
2003-12-15, 02:03:00,VALID,917.384,VALID,0,VALID,94.8414,VALID,-0.0679233,VALID,19.1631,VALID,101,VALID,0.184411,
2003-12-15, 02:04:00,VALID,917.373,VALID,0,VALID,95.1783,VALID,-0.0169808,VALID,19.1467,VALID,101,VALID,0,
2003-12-15, 02:05:00,VALID,917.361,VALID,0,VALID,95.3805,VALID,-0.0509425,VALID,19.1372,VALID,101,VALID,0.0508721,
2003-12-15, 02:06:00,VALID,917.352,VALID,0,VALID,95.3462,VALID,-0.0339617,VALID,19.1206,VALID,101,VALID,0.0377287,
2003-12-15, 02:07:00,VALID,917.345,VALID,0,VALID,95.3831,VALID,-0.0169808,VALID,19.0908,VALID,101,VALID,0,
2003-12-15, 02:08:00,VALID,917.336,VALID,0,VALID,95.2572,VALID,0,VALID,19.0781,VALID,101,VALID,0,
2003-12-15, 02:09:00,VALID,917.336,VALID,0,VALID,95.3703,VALID,0.0339617,VALID,19.0426,VALID,101,VALID,0.0385174,
2003-12-15, 02:10:00,VALID,917.323,VALID,0,VALID,95.4962,VALID,0.0169808,VALID,19.0232,VALID,101,VALID,0.131669,
2003-12-15, 02:11:00,VALID,917.298,VALID,0,VALID,95.5026,VALID,0,VALID,18.9907,VALID,101,VALID,0.214748,
2003-12-15, 02:12:00,VALID,917.282,VALID,0,VALID,95.7658,VALID,0.0169808,VALID,18.9688,VALID,96,VALID,0.42294,
2003-12-15, 02:13:00,VALID,917.276,VALID,0,VALID,95.9883,VALID,0.0339617,VALID,18.9353,VALID,78,VALID,0.394271,
2003-12-15, 02:14:00,VALID,917.261,VALID,0,VALID,96.4728,VALID,0,VALID,18.9455,VALID,102,VALID,0.797247,
2003-12-15, 02:15:00,VALID,917.257,VALID,0,VALID,96.5593,VALID,0,VALID,18.981,VALID,23,VALID,0.548735,
2003-12-15, 02:16:00,VALID,917.252,VALID,0,VALID,95.9744,VALID,0,VALID,18.9909,VALID,23,VALID,0.471154,
2003-12-15, 02:17:00,VALID,917.247,VALID,0,VALID,95.879,VALID,0.0169808,VALID,18.9552,VALID,36,VALID,0.463914,
2003-12-15, 02:18:00,VALID,917.239,VALID,0,VALID,96.0952,VALID,0,VALID,18.9492,VALID,51,VALID,0.453939,
2003-12-15, 02:19:00,VALID,917.239,VALID,0,VALID,96.0748,VALID,0.0169808,VALID,18.9333,VALID,52,VALID,0.635789,
2003-12-15, 02:20:00,VALID,917.221,VALID,0,VALID,96.3024,VALID,0,VALID,18.9263,VALID,57,VALID,0.648619,
2003-12-15, 02:21:00,VALID,917.193,VALID,0,VALID,96.5199,VALID,0,VALID,18.9229,VALID,86,VALID,0.707122,
2003-12-15, 02:22:00,VALID,917.192,VALID,0,VALID,96.6814,VALID,0,VALID,18.9683,VALID,93,VALID,0.717842,
2003-12-15, 02:23:00,VALID,917.167,VALID,0,VALID,96.3507,VALID,0.0169808,VALID,18.9909,VALID,100,VALID,0.601926,
2003-12-15, 02:24:00,VALID,917.162,VALID,0,VALID,96.2134,VALID,0.0169808,VALID,19.0078,VALID,121,VALID,0.805778,
2003-12-15, 02:25:00,VALID,917.159,VALID,0,VALID,96.1308,VALID,-0.0849042,VALID,18.9891,VALID,101,VALID,0.642912,
2003-12-15, 02:26:00,VALID,917.141,VALID,0,VALID,96.2465,VALID,-0.101885,VALID,18.973,VALID,76,VALID,0.751562,
2003-12-15, 02:27:00,VALID,917.126,VALID,0,VALID,96.5237,VALID,-0.0679233,VALID,19.0028,VALID,92,VALID,0.924352,
2003-12-15, 02:28:00,VALID,917.109,VALID,0,VALID,96.5186,VALID,-0.101885,VALID,19.0212,VALID,95,VALID,0.811481,
2003-12-15, 02:29:00,VALID,917.095,VALID,0,VALID,96.4588,VALID,-0.101885,VALID,19.0602,VALID,89,VALID,0.851749,
2003-12-15, 02:30:00,VALID,917.078,VALID,0,VALID,96.174,VALID,-0.101885,VALID,19.1056,VALID,105,VALID,0.578852,
2003-12-15, 02:31:00,VALID,917.064,VALID,0,VALID,95.9769,VALID,-0.101885,VALID,19.1282,VALID,107,VALID,0.686012,
2003-12-15, 02:32:00,VALID,917.05,VALID,0,VALID,95.9756,VALID,-0.0679233,VALID,19.1571,VALID,104,VALID,0.783736,
2003-12-15, 02:33:00,VALID,917.023,VALID,0,VALID,95.6997,VALID,-0.101885,VALID,19.1635,VALID,103,VALID,0.71548,
2003-12-15, 02:34:00,VALID,917.035,VALID,0,VALID,95.7175,VALID,-0.118866,VALID,19.1739,VALID,102,VALID,0.771984,
2003-12-15, 02:35:00,VALID,917.014,VALID,0,VALID,95.7544,VALID,-0.101885,VALID,19.17,VALID,117,VALID,1.1183,
2003-12-15, 02:36:00,VALID,917.004,VALID,0,VALID,95.6119,VALID,-0.101885,VALID,19.17,VALID,119,VALID,1.02039,
2003-12-15, 02:37:00,VALID,917.003,VALID,0,VALID,95.5509,VALID,-0.101885,VALID,19.1571,VALID,122,VALID,1.13463,
2003-12-15, 02:38:00,VALID,916.996,VALID,0,VALID,95.5674,VALID,-0.101885,VALID,19.1317,VALID,121,VALID,1.07667,
2003-12-15, 02:39:00,VALID,916.981,VALID,0,VALID,95.7073,VALID,-0.0849042,VALID,19.0766,VALID,122,VALID,0.798018,
2003-12-15, 02:40:00,VALID,916.977,VALID,0,VALID,95.8205,VALID,-0.101885,VALID,19.0413,VALID,120,VALID,0.725109,
2003-12-15, 02:41:00,VALID,916.976,VALID,0,VALID,95.7684,VALID,-0.0679233,VALID,18.9695,VALID,128,VALID,0.710938,
2003-12-15, 02:42:00,VALID,916.959,VALID,0,VALID,96.0646,VALID,-0.101885,VALID,18.9253,VALID,129,VALID,1.04315,
2003-12-15, 02:43:00,VALID,916.951,VALID,0,VALID,96.7437,VALID,-0.101885,VALID,18.8858,VALID,131,VALID,0.986852,
2003-12-15, 02:44:00,VALID,916.938,VALID,0,VALID,96.9192,VALID,-0.101885,VALID,18.8507,VALID,128,VALID,0.929492,
2003-12-15, 02:45:00,VALID,916.945,VALID,0,VALID,97.1137,VALID,-0.118866,VALID,18.8055,VALID,137,VALID,0.733356,
2003-12-15, 02:46:00,VALID,916.94,VALID,0,VALID,97.4227,VALID,-0.0849042,VALID,18.7665,VALID,131,VALID,0.85556,
2003-12-15, 02:47:00,VALID,916.915,VALID,0,VALID,97.6491,VALID,-0.101885,VALID,18.7375,VALID,138,VALID,0.768787,
2003-12-15, 02:48:00,VALID,916.906,VALID,0,VALID,97.8067,VALID,-0.101885,VALID,18.7248,VALID,138,VALID,0.93936,
2003-12-15, 02:49:00,VALID,916.88,VALID,0,VALID,97.8996,VALID,-0.101885,VALID,18.689,VALID,136,VALID,0.903161,
2003-12-15, 02:50:00,VALID,916.879,VALID,0,VALID,98.1068,VALID,-0.101885,VALID,18.6957,VALID,139,VALID,1.1321,
2003-12-15, 02:51:00,VALID,916.869,VALID,0,VALID,98.1272,VALID,-0.101885,VALID,18.6759,VALID,132,VALID,1.00724,
2003-12-15, 02:52:00,VALID,916.848,VALID,0,VALID,98.1335,VALID,-0.0509425,VALID,18.6722,VALID,135,VALID,0.894159,
2003-12-15, 02:53:00,VALID,916.844,VALID,0,VALID,97.9046,VALID,-0.101885,VALID,18.6431,VALID,127,VALID,0.920139,
2003-12-15, 02:54:00,VALID,916.842,VALID,0,VALID,97.911,VALID,-0.0509425,VALID,18.611,VALID,105,VALID,0.863758,
2003-12-15, 02:55:00,VALID,916.807,VALID,0,VALID,98.0255,VALID,-0.0169808,VALID,18.6016,VALID,85,VALID,0.625558,
2003-12-15, 02:56:00,VALID,916.793,VALID,0,VALID,98.0878,VALID,-0.0339617,VALID,18.5783,VALID,90,VALID,0.703307,
2003-12-15, 02:57:00,VALID,916.774,VALID,0,VALID,98.1755,VALID,-0.0509425,VALID,18.5852,VALID,97,VALID,0.713415,
2003-12-15, 02:58:00,VALID,916.747,VALID,0,VALID,98.2721,VALID,-0.0169808,VALID,18.5783,VALID,95,VALID,0.734747,
2003-12-15, 02:59:00,VALID,916.74,VALID,0,VALID,98.1717,VALID,0,VALID,18.5914,VALID,102,VALID,0.625355,
2003-12-15, 03:00:00,VALID,916.728,VALID,0,VALID,98.0471,VALID,-0.0169808,VALID,18.5718,VALID,106,VALID,0.711119,
2003-12-15, 03:01:00,VALID,916.73,VALID,0,VALID,97.9911,VALID,-0.0169808,VALID,18.5686,VALID,105,VALID,0.633539,
2003-12-15, 03:02:00,VALID,916.729,VALID,0,VALID,98,VALID,-0.0339617,VALID,18.5587,VALID,85,VALID,0.771621,
2003-12-15, 03:03:00,VALID,916.725,VALID,0,VALID,97.9403,VALID,0,VALID,18.582,VALID,102,VALID,0.911458,
2003-12-15, 03:04:00,VALID,916.74,VALID,0,VALID,97.8512,VALID,-0.0339617,VALID,18.5847,VALID,94,VALID,1.0333,
2003-12-15, 03:05:00,VALID,916.734,VALID,0,VALID,97.4621,VALID,-0.0679233,VALID,18.6274,VALID,95,VALID,0.720189,
2003-12-15, 03:06:00,VALID,916.747,VALID,0,VALID,97.1735,VALID,-0.0169808,VALID,18.6399,VALID,99,VALID,0.648615,
2003-12-15, 03:07:00,VALID,916.736,VALID,0,VALID,97.0056,VALID,-0.0169808,VALID,18.6396,VALID,87,VALID,0.412538,
2003-12-15, 03:08:00,VALID,916.731,VALID,0,VALID,96.8848,VALID,-0.0169808,VALID,18.653,VALID,69,VALID,0.467507,
2003-12-15, 03:09:00,VALID,916.741,VALID,0,VALID,96.9217,VALID,-0.0339617,VALID,18.6729,VALID,78,VALID,0.622852,
2003-12-15, 03:10:00,VALID,916.731,VALID,0,VALID,97.1684,VALID,-0.0169808,VALID,18.7015,VALID,79,VALID,0.449491,
2003-12-15, 03:11:00,VALID,916.741,VALID,0,VALID,97.0756,VALID,-0.0169808,VALID,18.7538,VALID,72,VALID,0.532203,
2003-12-15, 03:12:00,VALID,916.735,VALID,0,VALID,96.8378,VALID,-0.0169808,VALID,18.7755,VALID,58,VALID,0.629092,
2003-12-15, 03:13:00,VALID,916.724,VALID,0,VALID,96.7055,VALID,0,VALID,18.7951,VALID,71,VALID,0.714658,
2003-12-15, 03:14:00,VALID,916.719,VALID,0,VALID,96.7373,VALID,-0.0169808,VALID,18.8244,VALID,84,VALID,0.692649,
2003-12-15, 03:15:00,VALID,916.715,VALID,0,VALID,96.628,VALID,-0.0339617,VALID,18.847,VALID,93,VALID,0.698509,
2003-12-15, 03:16:00,VALID,916.706,VALID,0,VALID,96.5567,VALID,0,VALID,18.8662,VALID,95,VALID,0.965511,
2003-12-15, 03:17:00,VALID,916.702,VALID,0,VALID,96.5415,VALID,-0.0339617,VALID,18.8987,VALID,102,VALID,0.914253,
2003-12-15, 03:18:00,VALID,916.709,VALID,0,VALID,96.3838,VALID,-0.0509425,VALID,18.9308,VALID,112,VALID,0.886541,
2003-12-15, 03:19:00,VALID,916.7,VALID,0,VALID,96.0583,VALID,-0.0509425,VALID,18.9439,VALID,101,VALID,0.758371,
2003-12-15, 03:20:00,VALID,916.705,VALID,0,VALID,95.8129,VALID,-0.0339617,VALID,18.9347,VALID,95,VALID,0.838728,
2003-12-15, 03:21:00,VALID,916.696,VALID,0,VALID,96.0748,VALID,-0.0849042,VALID,18.9312,VALID,116,VALID,1.05918,
2003-12-15, 03:22:00,VALID,916.693,VALID,0,VALID,95.9667,VALID,0.0339617,VALID,18.9395,VALID,119,VALID,1.04306,
2003-12-15, 03:23:00,VALID,916.698,VALID,0,VALID,95.8459,VALID,0.0679233,VALID,18.9323,VALID,121,VALID,1.06432,
2003-12-15, 03:24:00,VALID,916.692,VALID,0,VALID,96.0125,VALID,0.0679233,VALID,18.91,VALID,114,VALID,1.05621,
2003-12-15, 03:25:00,VALID,916.706,VALID,0,VALID,96.0926,VALID,0.101885,VALID,18.9137,VALID,103,VALID,0.809956,
2003-12-15, 03:26:00,VALID,916.707,VALID,0,VALID,95.9489,VALID,0.0849042,VALID,18.9395,VALID,83,VALID,0.711632,
2003-12-15, 03:27:00,VALID,916.706,VALID,0,VALID,95.7645,VALID,0.0509425,VALID,18.9238,VALID,73,VALID,0.727679,
2003-12-15, 03:28:00,VALID,916.711,VALID,0,VALID,95.6476,VALID,0.0339617,VALID,18.8876,VALID,71,VALID,0.849382,
2003-12-15, 03:29:00,VALID,916.701,VALID,0,VALID,95.7709,VALID,0.101885,VALID,18.8518,VALID,81,VALID,0.915396,
2003-12-15, 03:30:00,VALID,916.706,VALID,0,VALID,95.8853,VALID,0.0509425,VALID,18.8193,VALID,74,VALID,0.782315,
2003-12-15, 03:31:00,VALID,916.698,VALID,0,VALID,96.0112,VALID,0.0509425,VALID,18.7942,VALID,80,VALID,0.676448,
2003-12-15, 03:32:00,VALID,916.7,VALID,0,VALID,96.16,VALID,0.101885,VALID,18.755,VALID,85,VALID,0.657924,
2003-12-15, 03:33:00,VALID,916.7,VALID,0,VALID,96.4131,VALID,0.101885,VALID,18.7614,VALID,89,VALID,0.773438,